Flag for Lithuania Weather past 2 weeks in Vilnius, Lithuania

Now
36 °F

Light rain. Fog.


Feels Like: 27 °F
Forecast: 40 / 41 °F
Wind: 12 mph from Southwest

Location: Vilnius Airport

Current Time: Dec 22, 2014 at 4:29:50 PM

Latest Report: Dec 22, 2014 at 3:50 PM


Visibility: 2 mi

Pressure: 29.33 "Hg

Humidity: 100%

Dew point: 36 °F

Location of VilniusLocation

Historic Weather in Vilnius — Graph

°F

Vilnius temperature yesterday

Maximum temperature yesterday: 36 °F (at 12:20 AM)
Minimum temperature yesterday: 32 °F (at 5:50 PM)
Average temperature yesterday: 34 °F

Past Weeks' High & Low Weather Summary

 TemperatureHumidityPressure
High50 °F (Dec 19, 1:50 PM)100% (Dec 7, 3:20 PM)30.36 "Hg (Dec 7, 3:20 PM)
Low21 °F (Dec 10, 11:20 PM)75% (Dec 13, 2:20 PM)29.33 "Hg (Dec 22, 2:50 PM)
Average34 °F96%29.79 "Hg
* Reported Dec 7 3:20 PM — Dec 22 3:20 PM, Vilnius, Weather by CustomWeather, © 2014

Note: Actual official high and low records may vary slightly from our data, if they occured in-between our weather recording intervals... More about our weather records

Advertising

Vilnius weather history for previous 24 hours

 ConditionsComfort  
Time TempWeatherWind HumidityBarometerVisibility
3:20 PM
Dec 22
36 °FLight rain. Fog.13 mph100%29.33 "Hg2 mi
2:50 PM36 °FLight rain. Fog.13 mph100%29.33 "Hg2 mi
2:20 PM34 °FLight rain. Fog.13 mph100%29.36 "Hg2 mi
1:50 PM34 °FLight rain. Fog.13 mph100%29.36 "Hg2 mi
1:20 PM34 °FLight rain. Fog.13 mph100%29.39 "Hg2 mi
12:50 PM34 °FLight rain. Low clouds.14 mph100%29.39 "Hg5 mi
12:20 PM34 °FLow clouds.13 mph100%29.39 "Hg5 mi
11:50 AM34 °FLight rain. Fog.13 mph100%29.42 "Hg2 mi
11:20 AM34 °FLight rain. Fog.14 mph100%29.42 "Hg2 mi
10:50 AM34 °FLight rain. Fog.13 mph100%29.45 "Hg2 mi
10:20 AM34 °FLight rain. Fog.13 mph100%29.45 "Hg2 mi
9:50 AM34 °FLight rain. Fog.12 mph100%29.47 "Hg2 mi
9:20 AM34 °FLight rain. Fog.12 mph100%29.47 "Hg2 mi
8:50 AM34 °FLight rain. Fog.10 mph100%29.50 "Hg2 mi
8:20 AM32 °FLight rain. Ice fog.12 mph100%29.50 "Hg2 mi
7:50 AM34 °FLight rain. Fog.13 mph100%29.50 "Hg2 mi
7:20 AM32 °FLight rain. Ice fog.12 mph100%29.53 "Hg2 mi
6:50 AM32 °FSnow flurries. Ice fog.10 mph100%29.53 "Hg2 mi
6:20 AM32 °FSnow flurries. Ice fog.10 mph100%29.56 "Hg2 mi
5:50 AM32 °FSnow flurries. Ice fog.10 mph100%29.56 "Hg2 mi
5:20 AM32 °FSnow showers. Ice fog.12 mph100%29.59 "Hg1 mi
4:50 AM32 °FSnow flurries. Ice fog.9 mph100%29.59 "Hg2 mi
4:20 AM32 °FSnow showers. Ice fog.9 mph100%29.62 "Hg2 mi
3:50 AM32 °FSnow showers. Ice fog.9 mph100%29.65 "Hg1 mi
3:20 AM32 °FSnow showers. Ice fog.9 mph100%29.65 "Hg1 mi
2:20 AM32 °FSnow showers. Ice fog.10 mph100%29.68 "Hg1 mi
1:50 AM32 °FSnow showers. Ice fog.9 mph100%29.68 "Hg1 mi
1:20 AM32 °FSnow flurries. Ice fog.8 mph100%29.71 "Hg2 mi
12:50 AM32 °FPartly cloudy.7 mph100%29.71 "Hg4 mi
12:20 AM32 °FPartly cloudy.8 mph100%29.74 "Hg4 mi
11:20 PM
Dec 21
32 °FPartly cloudy.7 mph93%29.74 "HgN/A
10:50 PM32 °FPartly cloudy.9 mph93%29.74 "HgN/A
10:20 PM32 °FPartly cloudy.9 mph93%29.74 "HgN/A
9:50 PM34 °FPartly cloudy.9 mph87%29.74 "HgN/A
9:20 PM34 °FPartly cloudy.6 mph87%29.77 "HgN/A
8:50 PM34 °FPartly cloudy.8 mph93%29.77 "HgN/A
8:20 PM32 °FPartly cloudy.8 mph100%29.77 "HgN/A
7:50 PM32 °FPartly cloudy.9 mph100%29.77 "HgN/A
7:20 PM32 °FPartly cloudy.8 mph100%29.74 "HgN/A
6:50 PM32 °FPartly cloudy.9 mph100%29.74 "HgN/A
6:20 PM32 °FSnow flurries. Partly cloudy.14 mph100%29.74 "Hg4 mi
5:50 PM32 °FSnow. Mostly cloudy.12 mph100%29.74 "Hg2 mi
5:20 PM34 °FRain showers. Mostly cloudy.7 mph93%29.71 "Hg1 mi
4:57 PM34 °FRain showers. Mostly cloudy.8 mph93%29.71 "Hg1 mi
4:20 PM34 °FSprinkles. Mostly cloudy.10 mph93%29.71 "Hg2 mi
Weather by CustomWeather, © 2014

See weather overviewHow to use our weather pages